Hourly Data Report for September 26, 2017

All times are specified in Local Standard Time (LST). Add 1 hour to adjust for Daylight Saving Time where and when it is observed.

MONCTON INTL A
NEW BRUNSWICK

46°06'44.000" N
64°40'43.000" W
70.70 m
8103201
71705
YQM

Download Data

Hourly Data (September 2017)
Hourly Data Report for September 26, 2017
Temp Definition
°C
Dew Point Temp Definition
°C
Rel Hum Definition
%
Wind Dir Definition
10's deg

Wind Spd Definition
km/h
Visibility Definition
km
Stn Press Definition
kPa
Hmdx Definition


Wind Chill Definition


Weather Definition


TIME
00:00 Legend Double Dagger 17.2 16.0 92 20 14 24.1 100.58     LegendNANA
01:00 Legend Double Dagger 17.5 16.2 93 21 14 24.1 100.57     LegendNANA
02:00 Legend Double Dagger 17.4 16.5 94 21 16 24.1 100.55     Clear
03:00 Legend Double Dagger 16.9 16.1 95 21 17 24.1 100.51     LegendNANA
04:00 Legend Double Dagger 18.5 17.1 92 22 17 24.1 100.50     LegendNANA
05:00 Legend Double Dagger 19.0 17.5 90 22 19 24.1 100.50     Mostly Cloudy
06:00 Legend Double Dagger 18.6 17.3 93 23 16 19.3 100.50     LegendNANA
07:00 Legend Double Dagger 19.1 17.5 90 23 21 19.3 100.53     LegendNANA
08:00 Legend Double Dagger 19.3 17.6 89 23 24 19.3 100.52     Mostly Cloudy
09:00 Legend Double Dagger 20.5 18.1 86 23 22 24.1 100.50 27   LegendNANA
10:00 Legend Double Dagger 23.0 19.0 78 22 22 24.1 100.48 30   LegendNANA
11:00 Legend Double Dagger 25.7 19.8 69 23 20 24.1 100.47 33   Mostly Cloudy
12:00 Legend Double Dagger 27.4 20.1 64 23 19 24.1 100.44 35   LegendNANA
13:00 Legend Double Dagger 29.6 19.8 55 29 19 24.1 100.39 37   LegendNANA
14:00 Legend Double Dagger 30.5 18.6 48 27 26 24.1 100.37 37   Mainly Clear
15:00 Legend Double Dagger 30.5 19.4 51 25 27 24.1 100.35 38   LegendNANA
16:00 Legend Double Dagger 22.6 15.7 65 36 40 24.1 100.44 27   LegendNANA
17:00 Legend Double Dagger 17.3 15.6 90 4 23 24.1 100.60     Mostly Cloudy
18:00 Legend Double Dagger 15.8 13.0 83 4 19 24.1 100.72     LegendNANA
19:00 Legend Double Dagger 14.0 12.5 91 4 6 24.1 100.78     LegendNANA
20:00 Legend Double Dagger 14.9 13.6 92 4 16 24.1 100.84     Mostly Cloudy
21:00 Legend Double Dagger 15.2 14.0 93 5 17 24.1 100.88     LegendNANA
22:00 Legend Double Dagger 14.9 13.5 91 5 17 24.1 100.91     LegendNANA
23:00 Legend Double Dagger 14.5 13.0 91 5 15 24.1 100.91     Mostly Cloudy

Notes on Data Quality.

Legend

  • E = Estimated
  • M = Missing
  • NA = Not Available
  • ‡ = Partner data that is not subject to review by the National Climate Archives
Date modified: